| time (UTC) | temp F | wind direction | speed MPH | gust MPH | rain 1hr in | rain 24hr in | rain mn in | humidity % | barometer mb |
| 20260906101537 | 62 | 0 | 0.0 | 0.0 | 0.00 | 0.00 | 0.00 | 92 | 1018.5 |
| 20260906100033 | 63 | 0 | 0.0 | 0.0 | 0.00 | 0.00 | 0.00 | 92 | 1018.4 |
| 20260906094539 | 63 | 0 | 0.0 | 0.0 | 0.00 | 0.00 | 0.00 | 92 | 1018.3 |
| 20260906093038 | 63 | 0 | 0.0 | 0.0 | 0.00 | 0.00 | 0.00 | 91 | 1018.3 |
| 20260906091536 | 64 | 0 | 0.0 | 0.0 | 0.00 | 0.00 | 0.00 | 91 | 1018.3 |
| 20260906090036 | 64 | 0 | 0.0 | 0.0 | 0.00 | 0.00 | 0.00 | 91 | 1018.2 |
| 20260906084545 | 64 | 0 | 0.0 | 0.0 | 0.00 | 0.00 | 0.00 | 91 | 1018.0 |
| 20260906083036 | 64 | 0 | 0.0 | 4.0 | 0.00 | 0.00 | 0.00 | 91 | 1018.0 |
| 20260906081533 | 65 | 0 | 0.0 | 3.0 | 0.00 | 0.00 | 0.00 | 90 | 1017.9 |
| 20260906080035 | 65 | 57 | 1.0 | 3.0 | 0.00 | 0.00 | 0.00 | 90 | 1017.9 |
| 20260906074536 | 65 | 64 | 0.0 | 3.0 | 0.00 | 0.00 | 0.00 | 90 | 1018.0 |
| 20260906073039 | 66 | 76 | 2.0 | 4.0 | 0.00 | 0.00 | 0.00 | 89 | 1017.8 |
| 20260906071541 | 66 | 59 | 0.0 | 2.0 | 0.00 | 0.00 | 0.00 | 89 | 1017.9 |
| 20260906070035 | 66 | 116 | 1.0 | 4.0 | 0.00 | 0.00 | 0.00 | 89 | 1017.9 |
| 20260906064533 | 67 | 57 | 2.0 | 5.0 | 0.00 | 0.00 | 0.00 | 90 | 1018.1 |
| 20260906063035 | 67 | 23 | 1.0 | 3.0 | 0.00 | 0.00 | 0.00 | 90 | 1018.0 |
| 20260906061536 | 68 | 25 | 1.0 | 5.0 | 0.00 | 0.00 | 0.00 | 90 | 1017.9 |
| 20260906060037 | 68 | 51 | 3.0 | 5.0 | 0.00 | 0.00 | 0.00 | 90 | 1017.8 |
| 20260906054534 | 68 | 0 | 1.0 | 4.0 | 0.00 | 0.00 | 0.00 | 90 | 1017.6 |
| 20260906053033 | 69 | 42 | 2.0 | 5.0 | 0.00 | 0.00 | 0.00 | 90 | 1017.3 |
| 20260906051534 | 70 | 52 | 1.0 | 4.0 | 0.00 | 0.00 | 0.00 | 89 | 1017.3 |
| 20260906050035 | 70 | 0 | 0.0 | 4.0 | 0.00 | 0.00 | 0.00 | 89 | 1017.3 |
| 20260906044533 | 71 | 0 | 0.0 | 3.0 | 0.00 | 0.00 | 0.00 | 88 | 1017.2 |
| 20260906043033 | 71 | 13 | 0.0 | 3.0 | 0.00 | 0.00 | 0.00 | 88 | 1017.2 |
| 20260906041535 | 71 | 0 | 0.0 | 4.0 | 0.00 | 0.00 | 0.00 | 87 | 1017.1 |
| 20260906040039 | 71 | 0 | 0.0 | 4.0 | 0.00 | 0.00 | 0.00 | 87 | 1017.2 |
| 20260906034542 | 71 | 0 | 0.0 | 4.0 | 0.00 | 0.00 | 0.00 | 87 | 1017.1 |
| 20260906033032 | 71 | 0 | 0.0 | 4.0 | 0.00 | 0.00 | 0.00 | 87 | 1016.9 |
| 20260906031531 | 71 | 0 | 1.0 | 4.0 | 0.00 | 0.00 | 0.00 | 87 | 1016.9 |
| 20260906030036 | 71 | 0 | 0.0 | 2.0 | 0.00 | 0.00 | 0.00 | 86 | 1016.8 |
| 20260906024534 | 71 | 0 | 0.0 | 3.0 | 0.00 | 0.00 | 0.00 | 86 | 1017.0 |
| 20260906023033 | 71 | 46 | 1.0 | 4.0 | 0.00 | 0.00 | 0.00 | 85 | 1016.8 |
| 20260906021538 | 72 | 37 | 1.0 | 3.0 | 0.00 | 0.00 | 0.00 | 84 | 1016.6 |
| 20260906020044 | 72 | 15 | 2.0 | 7.0 | 0.00 | 0.00 | 0.00 | 84 | 1016.6 |
| 20260906014549 | 72 | 13 | 3.0 | 7.0 | 0.00 | 0.00 | 0.00 | 83 | 1016.4 |
| 20260906013033 | 73 | 0 | 2.0 | 5.0 | 0.00 | 0.00 | 0.00 | 83 | 1016.3 |
| 20260906011540 | 73 | 14 | 2.0 | 8.0 | 0.00 | 0.00 | 0.00 | 83 | 1016.1 |
| 20260906010035 | 73 | 48 | 3.0 | 10.0 | 0.00 | 0.00 | 0.00 | 83 | 1016.0 |
| 20260906004538 | 73 | 69 | 3.0 | 11.0 | 0.00 | 0.00 | 0.00 | 84 | 1015.9 |
| 20260906003048 | 73 | 51 | 2.0 | 6.0 | 0.00 | 0.00 | 0.00 | 84 | 1015.8 |
| 20260906001535 | 73 | 74 | 3.0 | 8.0 | 0.00 | 0.00 | 0.00 | 84 | 1015.5 |
| 20260906000036 | 74 | 37 | 1.0 | 9.0 | 0.00 | 0.00 | 0.00 | 84 | 1015.4 |
| 20260905234535 | 74 | 40 | 5.0 | 12.0 | 0.00 | 0.00 | 0.00 | 83 | 1015.1 |
| 20260905233035 | 75 | 30 | 4.0 | 11.0 | 0.00 | 0.00 | 0.00 | 82 | 1015.2 |
| 20260905231539 | 76 | 18 | 3.0 | 10.0 | 0.00 | 0.00 | 0.00 | 82 | 1015.2 |
| 20260905230035 | 77 | 41 | 4.0 | 13.0 | 0.00 | 0.00 | 0.00 | 82 | 1015.0 |
| 20260905224534 | 78 | 348 | 5.0 | 13.0 | 0.00 | 0.00 | 0.00 | 80 | 1014.9 |
| 20260905223032 | 79 | 36 | 2.0 | 8.0 | 0.00 | 0.00 | 0.00 | 79 | 1014.6 |
| 20260905221537 | 80 | 5 | 4.0 | 9.0 | 0.00 | 0.00 | 0.00 | 78 | 1014.2 |
| 20260905220041 | 80 | 13 | 3.0 | 13.0 | 0.00 | 0.00 | 0.00 | 76 | 1014.0 |
| 20260905214535 | 81 | 40 | 6.0 | 10.0 | 0.00 | 0.00 | 0.00 | 75 | 1014.1 |
| 20260905213040 | 81 | 44 | 2.0 | 7.0 | 0.00 | 0.00 | 0.00 | 76 | 1014.0 |
| 20260905211539 | 82 | 63 | 6.0 | 12.0 | 0.00 | 0.00 | 0.00 | 73 | 1014.0 |
| 20260905210031 | 82 | 5 | 4.0 | 10.0 | 0.00 | 0.00 | 0.00 | 74 | 1013.9 |
| 20260905204533 | 82 | 44 | 4.0 | 11.0 | 0.00 | 0.00 | 0.00 | 75 | 1014.0 |
| 20260905203034 | 82 | 360 | 5.0 | 10.0 | 0.00 | 0.00 | 0.00 | 73 | 1013.8 |
| 20260905201538 | 82 | 5 | 3.0 | 9.0 | 0.00 | 0.00 | 0.00 | 75 | 1014.0 |
| 20260905200038 | 83 | 323 | 6.0 | 10.0 | 0.00 | 0.00 | 0.00 | 73 | 1014.2 |
| 20260905194541 | 83 | 34 | 2.0 | 13.0 | 0.00 | 0.00 | 0.00 | 74 | 1014.3 |
| 20260905193033 | 84 | 346 | 4.0 | 9.0 | 0.00 | 0.00 | 0.00 | 72 | 1014.2 |
| 20260905191534 | 83 | 37 | 3.0 | 10.0 | 0.00 | 0.00 | 0.00 | 72 | 1014.2 |
| 20260905190036 | 84 | 76 | 4.0 | 12.0 | 0.00 | 0.00 | 0.00 | 71 | 1014.2 |
| 20260905184535 | 84 | 360 | 4.0 | 9.0 | 0.00 | 0.00 | 0.00 | 70 | 1014.4 |
| 20260905183034 | 83 | 342 | 1.0 | 9.0 | 0.00 | 0.00 | 0.00 | 74 | 1014.3 |
| 20260905181541 | 83 | 25 | 4.0 | 9.0 | 0.00 | 0.00 | 0.00 | 74 | 1014.4 |
| 20260905180034 | 82 | 23 | 3.0 | 9.0 | 0.00 | 0.00 | 0.00 | 74 | 1014.5 |
| 20260905174535 | 82 | 346 | 1.0 | 6.0 | 0.00 | 0.14 | 0.00 | 75 | 1014.5 |
| 20260905173033 | 82 | 0 | 0.0 | 4.0 | 0.00 | 0.14 | 0.00 | 75 | 1014.6 |
| 20260905171535 | 82 | 5 | 3.0 | 10.0 | 0.00 | 0.14 | 0.00 | 75 | 1014.7 |
| 20260905170043 | 83 | 57 | 3.0 | 8.0 | 0.00 | 0.14 | 0.00 | 74 | 1014.9 |
| 20260905164535 | 83 | 86 | 0.0 | 5.0 | 0.00 | 0.17 | 0.00 | 75 | 1014.9 |
| 20260905163037 | 82 | 46 | 0.0 | 4.0 | 0.00 | 0.17 | 0.00 | 77 | 1014.9 |
| 20260905161535 | 81 | 194 | 1.0 | 6.0 | 0.00 | 0.17 | 0.00 | 79 | 1014.9 |
| 20260905160044 | 80 | 0 | 1.0 | 3.0 | 0.00 | 0.17 | 0.00 | 79 | 1014.9 |
| 20260905154533 | 79 | 0 | 0.0 | 5.0 | 0.00 | 0.17 | 0.00 | 81 | 1014.9 |
| 20260905153038 | 79 | 238 | 0.0 | 4.0 | 0.00 | 0.17 | 0.00 | 82 | 1015.0 |
| 20260905151536 | 78 | 0 | 0.0 | 5.0 | 0.00 | 0.17 | 0.00 | 82 | 1015.0 |
| 20260905150039 | 77 | 39 | 1.0 | 5.0 | 0.00 | 0.17 | 0.00 | 83 | 1015.0 |
| 20260905144541 | 76 | 51 | 0.0 | 4.0 | 0.00 | 0.17 | 0.00 | 84 | 1015.0 |
| 20260905143048 | 75 | 0 | 0.0 | 3.0 | 0.00 | 0.17 | 0.00 | 86 | 1015.1 |
| 20260905141536 | 74 | 86 | 0.0 | 4.0 | 0.00 | 0.17 | 0.00 | 87 | 1015.0 |
| 20260905140035 | 74 | 351 | 2.0 | 4.0 | 0.00 | 0.17 | 0.00 | 87 | 1015.0 |
| 20260905134534 | 74 | 104 | 0.0 | 3.0 | 0.00 | 0.17 | 0.00 | 88 | 1014.6 |
| 20260905133033 | 73 | 54 | 1.0 | 5.0 | 0.00 | 0.17 | 0.00 | 88 | 1014.7 |
| 20260905131546 | 73 | 0 | 0.0 | 5.0 | 0.00 | 0.17 | 0.00 | 89 | 1014.6 |
| 20260905130034 | 73 | 84 | 0.0 | 4.0 | 0.00 | 0.17 | 0.00 | 89 | 1014.5 |
| 20260905124541 | 74 | 12 | 0.0 | 5.0 | 0.00 | 0.17 | 0.00 | 89 | 1014.6 |
| 20260905123037 | 74 | 0 | 0.0 | 4.0 | 0.00 | 0.17 | 0.00 | 89 | 1014.3 |
| 20260905121535 | 73 | 0 | 0.0 | 1.0 | 0.00 | 0.17 | 0.00 | 91 | 1014.0 |
| 20260905120034 | 73 | 0 | 0.0 | 2.0 | 0.00 | 0.17 | 0.00 | 92 | 1013.8 |
| 20260905114542 | 72 | 0 | 0.0 | 0.0 | 0.00 | 0.17 | 0.00 | 92 | 1013.8 |
| 20260905113038 | 72 | 104 | 0.0 | 3.0 | 0.00 | 0.17 | 0.00 | 92 | 1013.8 |
| 20260905111533 | 72 | 57 | 0.0 | 2.0 | 0.00 | 0.17 | 0.00 | 92 | 1013.6 |
| 20260905110035 | 72 | 0 | 0.0 | 2.0 | 0.00 | 0.17 | 0.00 | 92 | 1013.3 |
| 20260905104532 | 72 | 181 | 0.0 | 4.0 | 0.00 | 0.17 | 0.00 | 92 | 1013.3 |
| 20260905103033 | 72 | 144 | 0.0 | 1.0 | 0.00 | 0.17 | 0.00 | 92 | 1013.3 |